Weather in North Lakhimpur

India     27°14′42″N   94°06′15″E
temp.,
°C
wind,
m/s
gust,
m/s
humid.,
%
clouds,
%
prec.,
mm/h
press.,
hPa
HPBL,
m
2 july, sat
sat223:30+24nnw11900 0.2 100216
02:30+24nw11890 0.1 100115
05:30+25nnw11851 0.2 100253
08:30+29e227520 0.1 1002716
11:30+32ese216335 0.3 9991243
14:30+33se216015 0.1 9971274
17:30+31nnw00735 0.1 99712
20:30+27nw218153 0.0 100019
3 july, sun
sun323:30+26nw118495 1.1 100018
02:30+25nnw119072 3.6 100015
05:30+25sse0192100 4.6 100197
08:30+28ese1283100 0.8 1002382
11:30+31se117098 3.4 1000923
14:30+32sw226237 0.1 9971248
17:30+29s248245 0.1 997127
20:30+26nw119197 2.9 100028
4 july, mon
mon423:30+26wnw119190 3.6 100131
02:30+25wnw1194100 5.2 100044
05:30+25wnw119393 8.6 100175
08:30+29sse118140 0.9 1002602
11:30+32sse216776 1.4 10001227
14:30+32ssw2267100 0.6 9971177
17:30+29ssw018495 2.8 99722
20:30+26n229157 1.1 100041
5 july, tue
tue523:30+26n229337 2.0 100156
02:30+25ne229552 1.2 100048
05:30+26nne119330 2.7 100184
08:30+29e118018 4.3 1001599
11:30+32sse116951 5.6 10001144
14:30+33s226561 0.6 9981237
17:30+31wsw118015 1.0 99820
20:30+28nw11880 0.1 100121
6 july, wed
wed623:30+27nw11888 0.3 100216
02:30+26n119396 4.3 100219
05:30+27nw019194 6.4 100476
08:30+30s117940 0.2 1004652
11:30+32ssw227138 1.6 10021114
14:30+34s226432 0.6 10001342
17:30+30ssw24826 1.0 1000121
20:30+27nw1192100 1.8 100339